Location: Saluda
(35.2377°N, 82.3468°W)
Time: 16:48:14
(UTC+00:00)

Explorer 11/Cluster Stage 4 - Pass Details

Date: 05 October 2022
Orbit: 466 x 1247 km, 28.8° (Epoch: 08 December)

Event Time Altitude Azimuth Distance (km) Brightness Sun altitude
Rises 20:24:22 0° 269° (W) 4,019 11.0 30.6°
Reaches altitude 10° 20:27:44 10° 260° (W) 2,955 10.8 30.0°
Maximum altitude 20:33:50 30° 203° (SSW) 1,682 9.5 28.9°
Drops below altitude 10° 20:39:00 10° 144° (SE) 2,477 9.2 28.0°
Sets 20:41:36 0° 133° (SE) 3,277 9.6 27.5°
